TimeCDT,TemperatureF,Dew PointF,Humidity,Sea Level PressureIn,VisibilityMPH,Wind Direction,Wind SpeedMPH,Gust SpeedMPH,PrecipitationIn,Events,Conditions,WindDirDegrees,DateUTC
12:15 AM,74.3,62.6,67,30.10,10.0,Calm,Calm,-,N/A,,Scattered Clouds,0,2013-05-27 05:15:00
12:35 AM,74.3,62.6,67,30.10,10.0,Calm,Calm,-,N/A,,Clear,0,2013-05-27 05:35:00
12:55 AM,73.8,62.2,67,30.09,10.0,Calm,Calm,-,N/A,,Clear,0,2013-05-27 05:55:00
1:15 AM,73.8,62.6,68,30.09,10.0,Calm,Calm,-,N/A,,Clear,0,2013-05-27 06:15:00
1:35 AM,73.9,62.4,67,30.08,10.0,Calm,Calm,-,N/A,,Clear,0,2013-05-27 06:35:00
1:55 AM,74.3,63.0,68,30.08,10.0,Calm,Calm,-,N/A,,Clear,0,2013-05-27 06:55:00
2:15 AM,74.1,63.5,69,30.08,10.0,Calm,Calm,-,N/A,,Clear,0,2013-05-27 07:15:00
2:35 AM,73.8,63.7,71,30.07,10.0,Calm,Calm,-,N/A,,Clear,0,2013-05-27 07:35:00
2:55 AM,73.6,63.9,72,30.07,10.0,Calm,Calm,-,N/A,,Clear,0,2013-05-27 07:55:00
3:15 AM,73.6,64.2,72,30.07,10.0,Calm,Calm,-,N/A,,Clear,0,2013-05-27 08:15:00
3:35 AM,73.4,64.4,73,30.07,10.0,Calm,Calm,-,N/A,,Clear,0,2013-05-27 08:35:00
3:55 AM,73.4,64.8,74,30.07,10.0,Calm,Calm,-,N/A,,Clear,0,2013-05-27 08:55:00
4:15 AM,73.4,65.1,75,30.07,10.0,Calm,Calm,-,N/A,,Scattered Clouds,0,2013-05-27 09:15:00
4:35 AM,73.4,65.3,76,30.07,10.0,Calm,Calm,-,N/A,,Clear,0,2013-05-27 09:35:00
4:55 AM,73.4,65.3,76,30.08,10.0,Calm,Calm,-,N/A,,Clear,0,2013-05-27 09:55:00
5:15 AM,73.0,65.7,78,30.09,10.0,Calm,Calm,-,N/A,,Mostly Cloudy,0,2013-05-27 10:15:00
5:35 AM,72.7,65.7,79,30.09,10.0,Calm,Calm,-,N/A,,Mostly Cloudy,0,2013-05-27 10:35:00
5:55 AM,72.5,65.7,79,30.09,10.0,Calm,Calm,-,N/A,,Mostly Cloudy,0,2013-05-27 10:55:00
6:15 AM,72.1,65.7,80,30.09,10.0,Calm,Calm,-,N/A,,Mostly Cloudy,0,2013-05-27 11:15:00
6:35 AM,71.6,65.7,81,30.10,10.0,Calm,Calm,-,N/A,,Clear,0,2013-05-27 11:35:00
6:55 AM,72.5,66.2,81,30.10,10.0,Calm,Calm,-,N/A,,Clear,0,2013-05-27 11:55:00
7:15 AM,74.5,66.9,77,30.10,10.0,Calm,Calm,-,N/A,,Clear,0,2013-05-27 12:15:00
7:35 AM,74.3,67.1,78,30.10,10.0,Calm,Calm,-,N/A,,Clear,0,2013-05-27 12:35:00
7:55 AM,74.8,67.5,78,30.11,10.0,Calm,Calm,-,N/A,,Clear,0,2013-05-27 12:55:00
8:15 AM,75.6,67.6,76,30.11,10.0,Calm,Calm,-,N/A,,Clear,0,2013-05-27 13:15:00
8:35 AM,75.6,67.5,76,30.11,10.0,Calm,Calm,-,N/A,,Clear,0,2013-05-27 13:35:00
8:55 AM,77.2,68.2,74,30.11,10.0,Calm,Calm,-,N/A,,Clear,0,2013-05-27 13:55:00
9:15 AM,77.9,68.2,72,30.11,10.0,South,5.8,-,N/A,,Clear,180,2013-05-27 14:15:00
9:35 AM,78.8,68.7,71,30.11,10.0,South,6.9,-,N/A,,Scattered Clouds,170,2013-05-27 14:35:00
9:55 AM,80.2,69.4,69,30.11,10.0,South,8.1,-,N/A,,Scattered Clouds,170,2013-05-27 14:55:00
10:15 AM,81.3,70.0,68,30.10,10.0,South,9.2,-,N/A,,Scattered Clouds,170,2013-05-27 15:15:00
10:35 AM,81.0,69.4,68,30.10,10.0,SSW,9.2,-,N/A,,Mostly Cloudy,210,2013-05-27 15:35:00
10:55 AM,81.5,69.6,67,30.10,10.0,SSW,6.9,-,N/A,,Mostly Cloudy,210,2013-05-27 15:55:00
11:15 AM,83.3,69.3,62,30.10,10.0,SSW,11.5,-,N/A,,Scattered Clouds,200,2013-05-27 16:15:00
11:35 AM,83.8,69.1,61,30.09,10.0,South,10.4,-,N/A,,Scattered Clouds,190,2013-05-27 16:35:00
11:55 AM,84.4,68.5,59,30.08,10.0,Calm,Calm,-,N/A,,Scattered Clouds,0,2013-05-27 16:55:00
12:15 PM,85.6,68.0,55,30.07,10.0,South,3.5,16.1,N/A,,Mostly Cloudy,170,2013-05-27 17:15:00
12:35 PM,86.0,68.0,55,30.07,10.0,SSW,8.1,17.3,N/A,,Scattered Clouds,200,2013-05-27 17:35:00
12:55 PM,86.7,68.2,54,30.07,10.0,South,11.5,17.3,N/A,,Scattered Clouds,180,2013-05-27 17:55:00
1:15 PM,87.4,67.3,51,30.06,10.0,SSW,9.2,-,N/A,,Scattered Clouds,200,2013-05-27 18:15:00
1:35 PM,88.0,68.2,52,30.05,10.0,South,10.4,16.1,N/A,,Scattered Clouds,180,2013-05-27 18:35:00
1:55 PM,88.2,67.8,51,30.04,10.0,South,10.4,-,N/A,,Scattered Clouds,180,2013-05-27 18:55:00
2:15 PM,88.5,66.9,49,30.03,10.0,SSW,8.1,17.3,N/A,,Clear,200,2013-05-27 19:15:00
2:35 PM,88.9,66.2,47,30.03,10.0,SSW,10.4,-,N/A,,Clear,200,2013-05-27 19:35:00
2:55 PM,89.2,66.0,46,30.03,10.0,South,10.4,16.1,N/A,,Clear,170,2013-05-27 19:55:00
3:15 PM,89.1,64.8,44,30.02,10.0,South,8.1,16.1,N/A,,Clear,190,2013-05-27 20:15:00
3:35 PM,89.6,65.5,45,30.01,10.0,SSW,10.4,-,N/A,,Scattered Clouds,210,2013-05-27 20:35:00
3:55 PM,89.6,65.5,45,30.01,10.0,South,8.1,-,N/A,,Scattered Clouds,190,2013-05-27 20:55:00
4:15 PM,88.5,64.6,45,30.00,10.0,South,5.8,-,N/A,,Scattered Clouds,190,2013-05-27 21:15:00
4:35 PM,87.3,63.0,44,30.00,10.0,South,3.5,16.1,N/A,,Scattered Clouds,180,2013-05-27 21:35:00
4:55 PM,89.8,64.0,42,30.00,10.0,South,9.2,-,N/A,,Clear,180,2013-05-27 21:55:00
5:15 PM,89.6,64.6,43,29.99,10.0,SSW,4.6,-,N/A,,Clear,200,2013-05-27 22:15:00
5:35 PM,88.7,63.9,43,29.99,10.0,South,10.4,-,N/A,,Clear,180,2013-05-27 22:35:00
5:55 PM,88.7,65.3,46,29.98,10.0,South,6.9,-,N/A,,Clear,190,2013-05-27 22:55:00
6:15 PM,88.2,65.1,46,29.97,10.0,South,5.8,-,N/A,,Clear,190,2013-05-27 23:15:00
6:35 PM,87.8,65.7,48,29.97,10.0,South,6.9,-,N/A,,Scattered Clouds,180,2013-05-27 23:35:00
6:55 PM,86.9,66.4,50,29.97,10.0,Calm,Calm,-,N/A,,Clear,0,2013-05-27 23:55:00
7:15 PM,86.0,64.9,49,29.97,10.0,Calm,Calm,-,N/A,,Scattered Clouds,0,2013-05-28 00:15:00
7:35 PM,84.6,66.2,54,29.97,10.0,Calm,Calm,-,N/A,,Scattered Clouds,0,2013-05-28 00:35:00
7:55 PM,83.8,67.1,57,29.97,10.0,Calm,Calm,-,N/A,,Scattered Clouds,0,2013-05-28 00:55:00
8:15 PM,82.4,67.1,60,29.98,10.0,Calm,Calm,-,N/A,,Scattered Clouds,0,2013-05-28 01:15:00
8:35 PM,81.3,67.5,63,29.98,10.0,Calm,Calm,-,N/A,,Clear,0,2013-05-28 01:35:00
8:55 PM,80.1,67.8,66,29.98,10.0,Calm,Calm,-,N/A,,Clear,0,2013-05-28 01:55:00
9:15 PM,79.7,68.0,67,29.97,10.0,Calm,Calm,-,N/A,,Clear,0,2013-05-28 02:15:00
9:35 PM,79.2,68.2,69,29.97,10.0,Calm,Calm,-,N/A,,Clear,0,2013-05-28 02:35:00
9:55 PM,78.3,68.2,71,29.99,10.0,Calm,Calm,-,N/A,,Clear,0,2013-05-28 02:55:00
10:15 PM,77.9,68.2,72,30.00,10.0,Calm,Calm,-,N/A,,Clear,0,2013-05-28 03:15:00
10:35 PM,78.1,68.4,72,30.00,10.0,Calm,Calm,-,N/A,,Clear,0,2013-05-28 03:35:00
10:55 PM,77.9,68.4,72,30.01,10.0,Calm,Calm,-,N/A,,Clear,0,2013-05-28 03:55:00
11:15 PM,77.0,68.5,75,30.01,10.0,Calm,Calm,-,N/A,,Clear,0,2013-05-28 04:15:00
11:35 PM,76.1,68.5,77,30.02,10.0,Calm,Calm,-,N/A,,Clear,0,2013-05-28 04:35:00
11:55 PM,75.2,68.4,79,30.02,10.0,Calm,Calm,-,N/A,,Clear,0,2013-05-28 04:55:00